This is the latest recevied weather packets stored in our database for station/object NO9B. If no packets are shown the sender has not sent any weather packets the latest 10 day(s).
| Time | Temp. | Humidity | Pressure | Rain* | Wind** | Luminosity | Snow |
|---|---|---|---|---|---|---|---|
| 1787498170 | 21.11° C | 61% | 1019 hPa | 0 mm | - | 41 W/m² | - |
| 1787497866 | 21.11° C | 68% | 1018.8 hPa | 0 mm | - | 38 W/m² | - |
| 1787497562 | 20.56° C | 66% | 1018.8 hPa | 0 mm | - | 37 W/m² | - |
| 1787497256 | 20.56° C | 69% | 1018.9 hPa | 0 mm | - | 37 W/m² | - |
| 1787496956 | 20.56° C | 71% | 1019 hPa | 0 mm | - | 36 W/m² | - |
| 1787496655 | 20° C | 71% | 1019 hPa | 0 mm | - | 34 W/m² | - |
| 1787496351 | 20° C | 69% | 1019 hPa | 0 mm | - | 33 W/m² | - |
| 1787496050 | 20° C | 70% | 1018.9 hPa | 0 mm | - | 33 W/m² | - |
| 1787495745 | 20° C | 72% | 1019 hPa | 0 mm | - | 32 W/m² | - |
| 1787495442 | 19.44° C | 72% | 1019 hPa | 0 mm | - | 32 W/m² | - |
| 1787495137 | 19.44° C | 71% | 1019 hPa | 0 mm | - | 33 W/m² | - |
| 1787494832 | 19.44° C | 73% | 1019 hPa | 0 mm | - | 32 W/m² | - |
| 1787494527 | 18.89° C | 75% | 1019 hPa | 0 mm | - | 31 W/m² | - |
| 1787494222 | 18.89° C | 74% | 1018.9 hPa | 0 mm | - | 30 W/m² | - |
| 1787493919 | 18.89° C | 77% | 1019 hPa | 0 mm | - | 28 W/m² | - |
| 1787493614 | 18.33° C | 77% | 1019.2 hPa | 0 mm | - | 28 W/m² | - |
| 1787493309 | 18.33° C | 79% | 1019.1 hPa | 0 mm | - | 27 W/m² | - |
| 1787493005 | 17.78° C | 80% | 1019.3 hPa | 0 mm | - | 27 W/m² | - |
| 1787492700 | 17.78° C | 80% | 1019.2 hPa | 0 mm | - | 26 W/m² | - |
| 1787492396 | 17.78° C | 82% | 1019.2 hPa | 0 mm | - | 25 W/m² | - |
| 1787492096 | 17.78° C | 82% | 1019 hPa | 0 mm | - | 25 W/m² | - |
| 1787491791 | 17.22° C | 84% | 1019.3 hPa | 0 mm | - | 25 W/m² | - |
| 1787491487 | 17.22° C | 83% | 1019.3 hPa | 0 mm | - | 25 W/m² | - |
| 1787491182 | 16.67° C | 84% | 1019.3 hPa | 0 mm | - | 24 W/m² | - |
| 1787490879 | 16.67° C | 85% | 1019.3 hPa | 0 mm | - | 24 W/m² | - |
* Rain latest hour (hover to see other rain measurements)
** Current wind speed in m/s (hover to see current wind gust speed)